Regional Weather Roundup
Issued by NWS

Home | Current Version | Previous Version | Text Only | Print | Product List | Glossary On
Versions: 1 2 3 4 5 6 7 8 9 10 11 12 13 14 15 16 17 18 19 20 21 22 23 24 25 26 27 28 29 30 31 32 33 34 35 36 37 38 39 40 41 42 43 44 45 46 47 48 49 50
000
ASUS43 KMPX 032310
RWRMN
WEATHER ROUNDUP FOR MINNESOTA
NATIONAL WEATHER SERVICE TWIN CITIES/CHANHASSEN MN
600 PM CDT THU SEP 03 2015


NOTE: "FAIR" INDICATES FEW OR NO CLOUDS BELOW 12,000 FEET WITH NO
SIGNIFICANT WEATHER AND/OR OBSTRUCTIONS TO VISIBILITY. N/A MEANS
CURRENT SKY AND/OR WEATHER CONDITIONS ARE NOT AVAILABLE.

MNZ060>063-068>070-040000-
   Twin Cities Metro

CITY           SKY/WX    TMP DP  RH WIND       PRES   REMARKS
TWIN CITIES    SUNNY     83  72  69 E12       29.86F
ST PAUL        SUNNY     82  72  71 E10       29.87S
CRYSTAL        SUNNY     85  71  63 E9        29.85S HX  90
LAKEVILLE      SUNNY     81  75  83 E9        29.87S
EDEN PRAIRIE   SUNNY     84  74  71 E8        29.85S HX  91
SOUTH ST PAUL  SUNNY     83  71  66 E8        29.87S
LAKE ELMO      FAIR      81  72  74 E8        29.89F
$$
MNZ001>005-007-008-013>017-022>024-027-028-040000-
   Northwest Minnesota

CITY           SKY/WX    TMP DP  RH WIND       PRES   REMARKS
BEMIDJI        SUNNY     82  68  63 SE16      29.85S
HALLOCK        SUNNY     91  70  49 SE22      29.69F HX  97
ROSEAU         SUNNY     86  72  62 SE13G21   29.78S HX  92
WARROAD        SUNNY     84  72  65 SE13      29.80S
THIEF RVR FALL SUNNY     88  70  55 SE15G22   29.76F HX  92
CROOKSTON      SUNNY     90  70  51 S17G25    29.74S HX  95
FOSSTON        SUNNY     90  66  45 SE9       29.81R HX  92
DETROIT LAKES  SUNNY     86  72  62 SE15      29.83S HX  92
MOORHEAD       SUNNY     90  73  58 SE15      29.75S HX  98
PARK RAPIDS    SUNNY     85  70  60 SE14      29.86R
MAHNOMEN       FAIR      85  72  64 SE12G17   29.80R HX  91
$$
MNZ006-009>011-018-025>026-040000-
   North Central Minnesota

CITY           SKY/WX    TMP DP  RH WIND       PRES   REMARKS
BAUDETTE       SUNNY     83  65  54 SE13      29.83F
FLAG ISLAND    SUNNY     79  64  61 SE14      29.80S
INTL FALLS     SUNNY     81  64  56 SE14      29.89S
WASKISH        SUNNY     81  66  61 SE9G22    29.85S
BIG FORK       SUNNY     81  63  54 SE9       29.91S
LONGVILLE      SUNNY     81  68  65 SE3       29.89R
GRAND RAPIDS     N/A     77  61  57 SE9       29.92S
ORR            SUNNY     81  59  47 SE7       29.91R
COOK           SUNNY     79  63  57 SE7       29.94S
WALKER         FAIR      80  69  68 SE7       29.87S
$$
MNZ012-019>021-037-040000-
   Northeast Minnesota

CITY           SKY/WX    TMP DP  RH WIND       PRES   REMARKS
DULUTH         SUNNY     67  57  70 E15       29.96F
ELY            SUNNY     77  55  47 SE10      29.97S
HIBBING        SUNNY     77  60  55 SE12      29.94S
EVELETH        SUNNY     77  59  53 SE9       29.97R
DULUTH HARBOR  PTSUNNY   61  57  88 NE6       29.97S
TWO HARBORS    SUNNY     72  59  64 E9        29.96R
SILVER BAY     SUNNY     70  54  56 NE6       29.97R
GRAND MARAIS     N/A     64  54  69 NE3       29.98F
G MARAIS ARPRT SUNNY     70  48  46 E5        30.03S
$$
MNZ029>031-032-039>041-046>048-054>057-064-040000-
   West Central Minnesota

CITY           SKY/WX    TMP DP  RH WIND       PRES   REMARKS
FERGUS FALLS   SUNNY     88  73  62 SE13      29.78S HX  96
MORRIS         SUNNY     88  75  66 SE15      29.79S HX  97
ALEXANDRIA     SUNNY     85  74  69 SE12      29.86R HX  92
ELBOW LAKE     FAIR      85  74  69 SE14      29.81S HAZE    HX  93
WADENA         MOSUNNY   82  72  69 SE12G17   29.85R
GLENWOOD       SUNNY     86  73  66 E13       29.85S HX  93
APPLETON       SUNNY     90  72  55 SE15      29.78S HX  96
BENSON         SUNNY     88  73  62 SE7       29.80S HX  96
ORTONVILLE     SUNNY     88  73  62 SE12      29.78S HX  96
MADISON        SUNNY     86  73  66 SE10      29.78S HX  93
WILLMAR        FAIR      88  77  70 E13       29.83S HX 100
$$
MNZ033>034-036-042>043-049>051-058-059-040000-
   Central Minnesota

CITY           SKY/WX    TMP DP  RH WIND       PRES   REMARKS
ST CLOUD       MOSUNNY   83  73  72 SE10      29.86S
SAUK CENTRE    MOCLDY    83  74  75 E8        29.85S
PAYNESVILLE    MOSUNNY   84  73  67 E13       29.85S HX  90
AITKIN         SUNNY     82  66  57 E9        29.89S
PINE RIVER     SUNNY     81  70  69 SE12G17   29.91S
BRAINERD       SUNNY     81  68  64 SE6       29.89S
STAPLES        MOSUNNY   82  70  65 SE8       29.86S
LONG PRAIRIE   FAIR      81  72  74 E9        29.87R
LITTLE FALLS   SUNNY     82  70  65 SE10      29.87S
LITCHFIELD     SUNNY     84  79  84 E12       29.84S HX  96
BUFFALO        SUNNY     83  71  66 E8        29.87S
MAPLE LAKE     SUNNY     83  75  75 E8        29.87S HX  90
$$
MNZ037-044-045-052-053-040000-
   East Central Minnesota

CITY           SKY/WX    TMP DP  RH WIND       PRES   REMARKS
PRINCETON      SUNNY     82  72  69 E7        29.88S
MORA           SUNNY     79  64  61 E9        29.91S
CAMBRIDGE      SUNNY     84  70  61 E9        29.87S
RUSH CITY      SUNNY     81  68  63 E5        29.90S
MOOSE LAKE     SUNNY     70  63  78 NE6       29.92S
HINCKLEY       FAIR      81  70  69 E7        29.91S
CLOQUET        SUNNY     66  59  77 E12       29.96S
MCGREGOR       SUNNY     79  68  69 E8        29.92S
$$
MNZ071>073-080-081-089-090-097-098-040000-
   Southwest Minnesota

CITY           SKY/WX    TMP DP  RH WIND       PRES   REMARKS
MONTEVIDEO     SUNNY     91  75  59 S10       29.81S HX 102
GRANITE FALLS  SUNNY     88  74  63 SE12G17   29.81S HX  96
CANBY          SUNNY     88  73  62 SE9       29.79S HX  95
MARSHALL       SUNNY     88  72  58 S13       29.81S HX  94
REDWOOD FALLS  SUNNY     88  74  63 SE10      29.80S HX  96
OLIVIA         SUNNY     88  73  62 SE9       29.81S HX  96
PIPESTONE      SUNNY     84  70  61 S8        29.82S
WINDOM         SUNNY     88  72  58 SE12      29.83S HX  94
WORTHINGTON    SUNNY     84  72  65 SE9       29.83S
JACKSON        MOSUNNY   86  73  66 SE12      29.85S HX  93
TRACY          SUNNY     87  76  69 SE6       29.82S HX  98
SLAYTON        SUNNY     85  73  65 SE10G16   29.83S HX  92
$$
MNZ065>067-074>077-082>085-091>093-040000-
   South Central Minnesota

CITY           SKY/WX    TMP DP  RH WIND       PRES   REMARKS
MANKATO        SUNNY     88  75  66 E12       29.84R HX  97
NEW ULM        SUNNY     88  73  62 SE12      29.82S HX  96
ST JAMES       SUNNY     88  75  66 SE8       29.83S HX  97
FAIRMONT       MOSUNNY   86  66  51 SE9       29.83S
GLENCOE        SUNNY     88  78  71 E9        29.83F HX 102
FARIBAULT      SUNNY     88  75  66 E10       29.86S HX  97
OWATONNA       SUNNY     88  73  62 SE9       29.87R HX  96
WASECA         SUNNY     84  73  70 E7        29.87R HX  91
ALBERT LEA     SUNNY     88  73  62 SE7       29.86S HX  96
$$
MNZ078>079-086>088-094>096-040000-
   Southeast Minnesota

CITY           SKY/WX    TMP DP  RH WIND       PRES   REMARKS
ROCHESTER      MOSUNNY   86  74  67 SE7       29.89S HX  94
RED WING       SUNNY     84  72  65 E10       29.86S
STANTON        SUNNY     84  74  71 E10       29.85S HX  91
DODGE CENTER   SUNNY     84  73  70 SE3       29.89R HX  91
WINONA         MOSUNNY   86  73  66 E6        29.89R HX  93
AUSTIN         SUNNY     88  75  66 CALM      29.88R HX  97
PRESTON        SUNNY     86  73  63 SE6       29.90S HX  93
$$
ABBREVIATIONS USED IN REMARKS
   TC - TEMPERATURES IN CELSIUS
  WCI - WIND CHILL INDEX
   HX - HEAT INDEX
  VSB - VISIBILITY
$$


USA.gov is the U.S. government's official web portal to all federal, state and local government web resources and services.